User: anonymous
Location: Unspecified
(0.0000°N, 0.0000°E)
Time: 19:12:28
(UTC+02:00)
Language:

Cosmos 1263 Rocket - Orbit

View from above orbital plane
View from above orbital plane
View from above satellite
View from above satellite

Ground track
Ground track

The orbit data is extracted from the following two-line orbital elements,

1 12389U 81033B   14206.24649861  .00017090  00000-0  25278-3 0   288
2 12389 082.8728 070.8939 0204095 337.9319 171.4197 15.34653900715561
Epoch (UTC): 25 July 2014 05:54:57
Eccentricity: 0.0204095
inclination: 82.8728°
perigee height: 322 km
apogee height: 601 km
right ascension of ascending node: 70.8939°
argument of perigee: 337.9319°
revolutions per day: 15.34653900
mean anomaly at epoch: 171.4197°
orbit number at epoch: 71556

The dashed part of the orbit path shows where the satellite is in the earth's shadow,  

DLR